Wind_Speed
31 31 30 30 29 27 26 25 24 23 21 21 19 23 30 35 42 45 48 57 60 61 60 54 47 38 39 36 29 26 27 19 18 25 21 16 16 21 20 19 15 19 20 20 22
36 35 34 34 33 33 31 29 27 26 25 22 20 19 23 29 37 44 47 53 58 62 64 58 51 43 41 40 35 31 31 35 28 24 26 17 17 19 23 23 19 17 17 19 20
41 40 39 38 37 36 35 34 32 30 29 27 23 21 19 23 29 39 49 51 57 62 64 64 58 55 48 48 39 35 39 38 31 29 27 20 20 20 21 20 18 18 16 21 21
47 45 44 43 41 40 39 38 36 35 33 32 30 25 23 21 25 33 44 53 57 61 62 67 64 62 51 49 46 40 38 41 35 34 36 34 29 27 25 18 16 18 19 19 17
52 52 50 49 48 46 44 42 41 40 38 36 34 32 28 25 24 26 34 46 56 58 61 65 63 65 56 54 52 45 48 46 41 41 37 29 32 37 35 28 32 24 23 20 18
57 57 56 56 55 53 51 48 46 45 43 40 39 37 34 34 23 25 29 37 50 58 60 61 66 67 59 58 57 57 51 51 49 49 44 40 36 35 39 41 35 26 23 18 15
60 60 61 60 60 59 58 55 53 50 48 45 44 42 40 42 28 27 29 32 41 54 59 60 64 65 67 60 59 60 54 56 53 53 50 44 43 43 43 38 34 25 22 20 16
65 66 65 64 64 63 62 61 58 56 54 51 48 47 50 43 34 36 30 30 33 43 56 58 60 70 70 62 54 58 57 57 54 52 49 48 47 45 39 34 27 24 25 23 17
70 71 71 70 69 68 67 65 63 61 58 57 54 51 55 50 42 39 37 30 30 32 47 57 60 58 63 60 58 55 56 58 56 56 51 48 44 42 37 32 29 28 25 21 20
72 74 75 76 76 75 73 70 68 65 63 61 59 59 59 56 50 45 44 35 32 34 34 49 59 57 59 58 58 58 54 54 52 54 50 47 45 43 40 36 34 31 26 21 21
74 77 78 77 79 81 80 78 75 72 67 65 64 63 64 60 54 52 49 43 36 34 34 41 50 54 60 60 55 57 57 55 54 54 52 50 49 47 43 41 36 31 30 24 21
78 79 79 78 78 80 84 84 82 79 77 73 70 68 68 66 58 58 55 51 42 39 39 38 41 52 60 60 57 57 58 61 58 57 56 53 51 54 47 42 38 35 31 27 18
77 79 84 84 82 83 84 81 81 84 84 81 76 76 72 69 66 64 60 59 48 48 41 38 47 50 51 56 55 57 59 62 62 60 59 57 54 53 45 39 36 36 34 31 26
72 73 78 80 83 86 87 84 82 85 86 86 84 80 78 72 71 71 66 63 57 51 51 42 50 45 45 44 47 52 58 60 60 58 59 57 56 53 48 45 40 37 36 33 32
68 70 71 74 78 83 87 87 87 85 87 86 83 84 82 80 79 77 73 68 65 59 55 44 53 45 41 45 45 48 54 56 55 55 56 56 55 54 50 44 43 39 37 38 36
74 76 73 73 70 76 83 88 89 88 88 88 84 85 86 86 85 83 79 74 72 66 57 56 54 47 43 48 45 53 51 50 49 51 53 56 55 50 47 43 43 40 39 39 38
62 66 72 76 73 74 77 83 86 86 90 89 89 89 88 89 89 89 85 80 76 73 64 61 58 50 50 48 44 49 47 45 45 43 49 51 49 48 41 42 42 41 39 38 37
52 55 60 63 73 79 79 80 81 84 85 89 94 95 92 91 90 93 91 88 84 80 75 66 63 58 52 50 46 49 48 44 43 48 47 45 46 44 40 40 38 36 35 37 36
45 48 52 56 61 69 80 84 84 82 83 84 90 96 95 93 94 95 95 93 91 85 80 72 64 65 60 57 53 50 43 52 51 53 50 44 44 39 36 34 32 35 35 32 31
37 37 41 46 54 59 68 78 87 87 84 83 86 92 97 98 99 99 98 97 95 91 82 75 69 69 67 62 53 51 54 52 49 50 47 43 48 44 37 34 33 29 27 30 32
31 31 33 38 44 52 58 66 74 80 88 88 87 87 91 99 103 104 102 100 97 94 86 81 76 74 71 60 55 55 52 47 47 51 45 40 42 45 44 35 38 29 33 35 36
29 29 28 31 37 44 48 57 60 70 77 88 92 92 90 97 105 109 105 100 99 97 94 89 82 82 69 68 66 58 57 55 45 47 46 44 47 51 48 42 41 33 40 41 36
21 24 24 26 31 37 45 50 54 60 70 77 89 96 95 94 103 109 108 105 102 100 98 94 89 86 80 75 71 62 55 55 48 47 46 42 52 50 45 43 44 43 43 48 41
18 18 19 21 26 32 39 43 49 55 60 67 76 90 100 100 100 106 109 109 107 104 102 99 94 91 85 78 71 63 58 54 52 45 48 43 53 50 51 49 49 49 46 47 47
22 21 21 23 24 27 32 38 44 50 56 62 71 81 92 103 101 103 110 112 112 109 106 103 99 95 91 86 75 71 65 58 56 53 48 54 53 50 51 55 53 50 47 47 49
25 21 23 22 23 28 30 31 37 42 51 58 67 75 84 95 106 107 109 116 116 114 110 106 103 100 97 91 82 77 73 64 60 61 54 52 53 57 54 51 52 53 50 49 50
26 28 29 28 27 31 33 36 36 40 47 53 61 71 81 87 98 108 110 116 119 115 112 109 105 105 102 97 89 83 79 73 66 63 60 56 56 55 47 45 46 50 55 51 51
Wind_Direction
246 244 243 242 243 244 244 244 243 247 248 243 238 237 237 235 232 230 226 222 221 221 221 224 227 217 222 219 200 179 174 174 193 193 217 231 226 234 237 241 251 269 278 288 296
254 252 249 247 246 246 247 248 249 247 249 249 247 242 240 240 233 230 227 224 221 218 219 219 225 219 228 221 208 201 180 185 206 225 226 228 210 212 229 243 272 270 284 287 297
256 254 253 252 250 247 246 247 249 251 251 251 249 246 242 241 238 232 227 224 221 218 217 219 223 222 230 223 215 199 200 205 211 221 221 191 220 223 230 232 274 267 277 283 293
256 254 253 252 250 249 249 249 249 248 250 251 253 251 248 243 239 236 231 225 222 219 218 219 225 226 224 223 220 205 194 206 206 214 219 217 229 240 231 252 274 279 288 287 297
256 255 253 252 250 249 249 249 250 250 250 251 251 252 252 248 237 242 240 232 225 221 219 218 225 225 222 221 224 222 211 214 215 215 216 225 247 250 238 257 282 286 282 290 293
259 257 255 253 253 251 248 247 247 249 252 249 251 252 251 251 241 243 242 239 229 223 220 218 222 224 224 223 224 228 224 221 220 213 228 248 248 242 237 267 275 276 273 273 275
260 259 257 255 253 251 250 248 246 247 247 248 248 250 252 246 245 248 244 241 235 225 222 217 220 221 225 228 231 232 232 229 225 229 232 242 246 245 252 259 265 270 268 264 268
257 256 254 254 254 252 250 248 246 244 244 245 245 247 248 245 245 247 243 241 241 231 222 220 220 221 222 229 230 234 230 233 236 237 239 237 242 242 244 250 249 259 265 267 271
258 257 254 252 251 250 250 248 246 243 242 241 242 243 248 248 243 246 249 239 242 237 225 221 220 218 220 222 225 224 230 232 242 244 241 241 244 244 239 242 242 247 249 264 273
259 257 256 255 252 250 248 246 245 242 241 239 237 240 243 245 244 241 246 240 234 230 222 221 222 218 220 219 221 220 225 232 236 238 243 247 247 242 233 235 237 244 242 249 259
264 263 258 255 254 252 249 247 244 242 239 238 236 235 239 241 243 244 243 244 240 229 226 220 221 217 220 220 218 220 223 229 233 236 238 241 244 244 239 233 237 238 242 239 253
266 265 262 258 254 252 250 247 244 243 240 237 236 234 235 236 237 241 241 240 237 237 226 223 222 221 223 223 221 220 222 226 229 231 234 237 240 243 242 237 233 235 241 241 236
267 263 260 259 255 252 249 247 246 242 240 238 233 234 234 234 233 236 237 239 232 236 231 223 224 218 221 224 220 221 222 225 227 228 232 235 238 243 244 240 238 241 239 241 232
272 265 258 252 251 250 248 245 242 242 241 236 235 232 233 233 233 233 234 235 232 232 235 224 232 227 220 221 221 222 222 223 226 227 232 233 236 236 238 239 236 235 241 239 234
272 266 258 251 246 246 245 243 241 238 238 237 232 231 230 228 230 230 230 232 235 229 232 224 230 228 226 225 218 220 222 222 226 229 231 234 234 236 237 238 238 232 233 238 238
268 262 256 252 244 243 241 239 238 237 236 236 232 230 229 227 227 229 227 228 232 232 228 231 235 231 225 228 219 225 224 224 224 226 229 233 236 236 236 233 236 236 234 231 233
269 261 255 249 244 240 239 237 234 234 234 233 232 229 227 227 225 226 227 226 227 231 227 229 232 232 230 228 221 228 229 228 227 228 229 231 230 235 234 232 231 234 232 228 229
271 260 254 247 243 239 237 235 232 232 233 230 229 229 226 224 225 225 224 224 225 226 227 222 228 230 230 228 223 223 223 224 218 224 230 231 234 232 226 229 230 231 223 229 228
270 260 252 246 242 238 235 233 230 228 230 232 229 227 225 223 223 224 223 222 226 225 226 222 222 228 228 227 223 223 223 222 217 217 223 226 232 230 232 224 220 224 221 229 234
276 262 253 247 240 237 235 233 232 230 228 228 231 227 225 222 222 222 223 221 222 224 222 223 223 228 228 226 227 223 222 222 220 226 223 217 223 227 221 226 215 224 226 216 213
277 269 254 246 243 236 235 233 232 230 229 227 227 229 223 223 222 222 220 221 219 221 220 220 220 224 227 231 231 228 225 226 221 224 226 214 212 217 213 224 238 214 211 215 207
279 271 259 250 241 237 238 235 231 228 226 225 224 225 225 221 221 223 219 218 220 217 218 216 217 223 222 224 225 227 224 224 219 222 222 218 208 208 211 225 229 219 209 204 198
296 279 268 252 246 242 238 234 230 227 224 223 223 223 224 223 221 221 220 217 218 217 215 215 214 219 219 220 223 225 225 226 222 219 221 217 214 213 219 225 223 221 215 205 201
310 301 287 267 254 245 240 238 237 232 226 224 223 223 222 221 222 219 220 219 216 216 214 214 213 215 218 219 221 223 226 224 224 222 220 211 214 219 218 220 221 220 219 210 208
307 296 289 284 271 259 248 241 237 235 230 225 222 221 222 222 221 220 218 218 217 214 214 212 212 211 217 218 214 219 220 221 219 218 220 216 215 219 216 214 215 223 221 217 212
305 298 288 278 268 266 255 248 241 236 234 227 224 222 224 222 220 220 218 216 217 214 212 211 210 210 214 217 213 214 216 217 216 215 214 216 215 218 215 210 214 221 226 221 219
316 301 293 287 276 268 258 249 243 242 234 231 227 221 223 223 221 220 219 216 214 214 210 210 208 209 211 216 213 212 214 214 214 215 214 214 215 215 209 208 214 220 226 225 222
Height
10910 10912 10914 10915 10916 10917 10918 10919 10919 10918 10919 10920 10921 10921 10921 10923 10926 10930 10937 10944 10952 10956 10964 10970 10975 10983 10986 10991 10996 10998 10999 11002 11004 11005 11008 11009 11011 11012 11014 11014 11015 11015 11014 11013 11012
10904 10906 10907 10908 10910 10912 10913 10914 10915 10914 10914 10915 10916 10916 10916 10916 10919 10924 10929 10935 10942 10948 10954 10964 10969 10977 10983 10986 10991 10995 10996 10998 11000 11002 11005 11007 11009 11010 11012 11013 11014 11013 11013 11011 11011
10897 10898 10900 10901 10903 10905 10906 10908 10909 10910 10910 10910 10910 10911 10911 10911 10913 10915 10919 10926 10933 10939 10947 10955 10962 10968 10975 10978 10984 10988 10991 10992 10994 11000 11001 11002 11004 11006 11008 11010 11011 11011 11012 11011 11011
10886 10888 10891 10893 10895 10897 10899 10901 10902 10904 10905 10905 10905 10905 10906 10906 10907 10908 10911 10918 10923 10931 10939 10948 10951 10957 10966 10970 10975 10984 10987 10988 10991 10996 10997 10999 11002 11005 11006 11008 11010 11010 11011 11009 11009
10876 10878 10880 10882 10884 10888 10891 10893 10895 10896 10898 10899 10900 10900 10900 10900 10901 10903 10903 10907 10914 10921 10931 10940 10940 10948 10958 10963 10968 10977 10981 10984 10988 10992 10997 10998 11001 11003 11004 11006 11006 11007 11009 11008 11008
10863 10865 10868 10870 10872 10876 10879 10883 10885 10887 10889 10892 10893 10893 10894 10892 10897 10896 10897 10898 10903 10910 10918 10929 10932 10941 10949 10954 10960 10964 10977 10976 10982 10986 10991 10994 10998 11001 11003 11003 11005 11007 11007 11006 11005
10847 10850 10852 10856 10858 10862 10866 10869 10874 10877 10878 10882 10884 10886 10885 10882 10892 10891 10891 10892 10894 10900 10907 10917 10923 10935 10943 10947 10951 10955 10965 10966 10977 10979 10985 10987 10990 10995 11000 11002 11002 11004 11005 11005 11002
10830 10832 10836 10839 10842 10846 10850 10855 10860 10865 10867 10871 10874 10876 10871 10878 10886 10883 10886 10887 10889 10893 10900 10907 10915 10924 10933 10938 10944 10948 10956 10957 10963 10969 10976 10980 10984 10988 10992 10996 10998 10999 11002 11003 11000
10811 10813 10817 10821 10824 10828 10833 10838 10844 10850 10854 10858 10862 10865 10861 10869 10876 10879 10879 10881 10884 10887 10894 10899 10904 10916 10923 10930 10936 10941 10946 10953 10955 10959 10966 10972 10978 10982 10985 10990 10992 10994 10997 10998 11000
10792 10794 10797 10801 10804 10808 10813 10819 10825 10833 10839 10845 10848 10851 10851 10857 10865 10870 10870 10876 10877 10879 10885 10891 10895 10906 10911 10919 10927 10934 10939 10944 10948 10951 10957 10963 10969 10974 10977 10982 10986 10989 10992 10992 10996
10772 10771 10775 10779 10784 10786 10791 10799 10805 10813 10822 10828 10833 10838 10838 10845 10854 10858 10862 10868 10873 10876 10880 10881 10888 10894 10894 10907 10920 10928 10931 10934 10940 10943 10949 10955 10960 10964 10971 10976 10980 10984 10987 10988 10990
10750 10749 10750 10755 10760 10762 10764 10775 10785 10793 10800 10809 10818 10821 10825 10832 10842 10844 10851 10855 10866 10868 10870 10878 10881 10881 10889 10900 10909 10916 10922 10925 10932 10936 10940 10946 10949 10951 10961 10970 10975 10978 10981 10983 10986
10723 10721 10721 10727 10733 10736 10737 10753 10762 10767 10775 10786 10799 10802 10810 10821 10827 10832 10838 10842 10855 10857 10863 10871 10866 10870 10881 10890 10899 10903 10908 10914 10920 10926 10932 10938 10944 10946 10956 10964 10972 10976 10977 10980 10982
10691 10690 10689 10697 10702 10705 10712 10726 10736 10740 10748 10763 10776 10788 10796 10808 10813 10815 10823 10830 10840 10849 10851 10860 10855 10869 10875 10883 10890 10894 10896 10904 10910 10918 10924 10933 10938 10944 10947 10952 10960 10968 10972 10975 10977
10659 10658 10659 10662 10671 10675 10683 10694 10704 10716 10723 10737 10757 10766 10773 10785 10790 10799 10807 10820 10826 10834 10843 10854 10846 10858 10869 10872 10879 10880 10885 10895 10902 10910 10917 10924 10930 10937 10944 10949 10954 10961 10963 10968 10971
10627 10624 10627 10629 10643 10647 10654 10663 10676 10689 10699 10713 10730 10740 10749 10761 10770 10779 10792 10802 10809 10821 10836 10839 10841 10852 10861 10860 10872 10869 10878 10887 10895 10901 10909 10912 10921 10931 10939 10943 10947 10953 10958 10962 10966
10591 10589 10592 10602 10613 10620 10626 10636 10649 10664 10672 10689 10702 10712 10725 10737 10752 10759 10774 10786 10795 10805 10821 10828 10835 10845 10849 10853 10863 10865 10874 10885 10890 10897 10897 10905 10914 10921 10932 10935 10939 10945 10952 10955 10960
10562 10563 10565 10573 10579 10591 10600 10610 10627 10637 10646 10659 10671 10682 10703 10718 10732 10738 10753 10765 10776 10787 10799 10816 10825 10834 10842 10849 10856 10857 10865 10878 10886 10889 10892 10902 10907 10914 10922 10929 10935 10936 10944 10947 10954
10539 10540 10543 10548 10555 10563 10572 10585 10599 10612 10622 10634 10643 10659 10678 10697 10705 10717 10731 10746 10760 10774 10786 10805 10818 10821 10830 10835 10846 10852 10864 10864 10871 10876 10883 10897 10901 10909 10916 10923 10928 10929 10937 10942 10947
10520 10522 10525 10528 10533 10540 10548 10559 10572 10586 10601 10613 10621 10635 10653 10669 10679 10691 10707 10724 10742 10758 10780 10794 10807 10812 10817 10825 10840 10848 10846 10855 10868 10871 10880 10893 10898 10903 10910 10914 10921 10927 10931 10936 10940
10506 10508 10510 10512 10516 10521 10528 10536 10547 10564 10576 10588 10599 10610 10627 10642 10655 10662 10681 10701 10724 10743 10766 10779 10791 10796 10805 10827 10833 10837 10847 10853 10861 10864 10876 10884 10895 10899 10904 10909 10911 10922 10925 10930 10935
10495 10495 10498 10500 10502 10506 10511 10517 10527 10537 10547 10561 10574 10585 10599 10613 10625 10635 10663 10688 10704 10725 10742 10758 10775 10777 10803 10809 10815 10827 10835 10840 10852 10864 10871 10876 10886 10890 10897 10902 10906 10915 10920 10926 10933
10488 10486 10487 10489 10490 10493 10496 10499 10505 10515 10526 10537 10548 10561 10574 10589 10601 10619 10640 10665 10683 10703 10722 10740 10756 10765 10780 10789 10802 10817 10827 10836 10846 10850 10863 10873 10882 10886 10892 10896 10900 10908 10916 10921 10929
10485 10481 10479 10479 10479 10481 10483 10487 10491 10498 10507 10518 10529 10539 10548 10562 10579 10599 10619 10639 10660 10680 10702 10720 10739 10749 10764 10779 10795 10810 10819 10828 10838 10849 10854 10868 10872 10878 10885 10891 10896 10901 10908 10915 10922
10478 10475 10472 10470 10470 10469 10471 10474 10477 10481 10490 10499 10508 10515 10524 10538 10558 10574 10593 10613 10633 10655 10677 10699 10720 10735 10747 10760 10781 10792 10803 10814 10827 10838 10844 10853 10861 10867 10877 10885 10890 10895 10903 10909 10916
10469 10467 10463 10463 10461 10459 10460 10461 10461 10466 10471 10478 10488 10497 10503 10513 10529 10545 10564 10581 10602 10629 10654 10678 10699 10717 10728 10742 10763 10774 10785 10800 10812 10822 10835 10842 10854 10857 10865 10877 10887 10891 10896 10903 10909
10462 10456 10452 10450 10448 10446 10446 10446 10449 10450 10452 10458 10466 10475 10479 10489 10503 10519 10534 10553 10578 10607 10634 10658 10682 10697 10709 10723 10743 10759 10769 10782 10796 10812 10825 10833 10840 10848 10861 10871 10879 10884 10887 10895 10902